Weather Roundup
Issued by NWS Chicago, IL

Home | Current Version | Previous Version | Text Only | Print | Product List | Glossary On
Versions: 1 2 3 4 5 6 7 8 9 10 11 12 13 14 15 16 17 18 19 20 21 22 23 24 25 26 27 28 29 30 31 32 33 34 35 36 37 38 39 40 41 42 43 44 45 46 47 48 49 50
000
NZUS59 KLOT 281010
HRRLOT

CHICAGO AREA WEATHER ROUNDUP
NATIONAL WEATHER SERVICE CHICAGO/ROMEOVILLE IL
400 AM CST FRI NOV 28 2014

NOTE: "FAIR" INDICATES FEW OR NO CLOUDS BELOW 12,000 FEET WITH NO
SIGNIFICANT WEATHER AND/OR OBSTRUCTIONS TO VISIBILITY.

* THESE STATIONS ARE NOT UNDER NWS QUALITY CONTROL. THEY ALSO MAY NOT
  REPORT WEATHER SUCH AS PRECIPITATION OR FOG.

ILZ005-006-012>014-019>023-281100-
NORTHEAST ILLINOIS

CITY           SKY/WX    TMP DP  RH WIND       PRES   REMARKS
OHARE          CLOUDY    19  11  70 S3        30.34F
MIDWAY         CLOUDY    21  12  68 S6        30.36F WCI  13
AURORA         CLOUDY    17   9  70 CALM      30.35F
LANSING*       CLOUDY    20  14  77 S3        30.37F
JOLIET*        CLOUDY    17  11  77 CALM      30.36F
WAUKEGAN       CLOUDY    16  11  80 CALM      30.34F
DUPAGE AIRPORT CLOUDY    17  12  80 S3        30.34F
WHEELING       CLOUDY    19  11  70 CALM      30.37F
KANKAKEE*      CLOUDY   N/A N/A N/A CALM      30.38S
MORRIS*        CLOUDY    17  14  86 SE5       30.35F WCI  10
LEWIS AIRPORT* CLOUDY    18  12  77 CALM      30.35S
NORTHERLY IS     N/A     21  11  65 SW3         N/A
$$

WIZ051-052-058>065-066-070>072-281100-
SOUTHEAST WISCONSIN

CITY           SKY/WX    TMP DP  RH WIND       PRES   REMARKS
MILWAUKEE      CLOUDY    15   7  70 CALM      30.34F
KENOSHA*       CLOUDY    16  10  77 CALM      30.34F
RACINE*        CLOUDY    15   8  73 CALM      30.36F
BURLINGTON     MOCLDY    13  10  89 CALM      30.32F
WAUKESHA       CLOUDY    12   9  85 CALM      30.32F
WEST BEND      CLOUDY    12   9  85 CALM      30.30F
$$

INZ001>003-010>013-019-020-281100-
NORTHWEST INDIANA

CITY           SKY/WX    TMP DP  RH WIND       PRES   REMARKS
GARY*          NOT AVBL
MICHIGAN CITY* NOT AVBL
RENSSELAER*    NOT AVBL
VALPARAISO     CLOUDY    19  14  81 CALM      30.37S
$$

LMZ740>746-281100-
SOUTHERN LAKE MICHIGAN

STATION/POSITION TIME  SKY/WX   TEMP WIND        PRES    VSBY
                                AIR  DIR/SP/G
                 (UTC)          (F)  (DEG/KT/KT) (MB)    (MI)
HARRISON CRIB    1000            21  200/ 10/ 14   N/A
BURNHAM HARBOR   1000            21  180/  4/  8   N/A
CALUMET HARBOR   1000            21  210/  3/  5 1027.0S
BURNS HARBOR     NOT AVBL
MICHIGAN CITY    1000            21  200/ 10/ 12   N/A
$$

ABBREVIATIONS USED IN REMARKS
   TC - TEMPERATURE IN CELSIUS
  WCI - WIND CHILL INDEX
   HX - HEAT INDEX
  VSB - VISIBILITY
$$



USA.gov is the U.S. government's official web portal to all federal, state and local government web resources and services.